Miscellaneous Local Product
Issued by NWS Hastings, NE

Home | Current Version | Previous Version | Graphics & Text | Print | Product List | Glossary On
Versions: 1 2 3 4 5 6 7 8 9 10 11 12 13 14 15 16 17 18 19 20 21 22 23 24 25 26 27 28 29 30 31 32 33 34 35 36 37 38 39 40 41 42 43 44 45 46 47 48 49 50
272
AXUS43 KGID 201902
MISGRI

GID CWA HOURLY WEATHER ROUNDUP
NATIONAL WEATHER SERVICE HASTINGS NE
200 PM CDT FRI OCT 20 2017

NOTE: "FAIR" INDICATES FEW OR NO CLOUDS BELOW 12,000 FEET WITH NO
SIGNIFICANT WEATHER AND/OR OBSTRUCTIONS TO VISIBILITY.

...SOUTH CENTRAL NEBRASKA...

CITY           SKY/WX    TMP DP  RH WIND       PRES   REMARKS
GRAND ISLAND   SUNNY     75  57  53 S23G35    29.68F
HASTINGS       SUNNY     74  55  51 S24G33    29.70F
KEARNEY        SUNNY     72  55  55 S28G37    29.66F
ORD            MOSUNNY   73  54  51 S23G36    29.61F
YORK           SUNNY     75  57  53 S23G31    29.72F
AURORA         SUNNY     74  56  51 S16G31    29.70F
LEXINGTON      MOSUNNY   72  53  51 S23G30    29.63F
HOLDREGE       SUNNY     72  55  55 S25G37    29.65F
HEBRON         MOSUNNY   77  58  52 S20G28    29.75F

...NEBRASKA PANHANDLE...

CITY           SKY/WX    TMP DP  RH WIND       PRES   REMARKS
CHADRON        SUNNY     81  35  19 S15       29.46F
ALLIANCE       SUNNY     71  42  35 S10       29.55F
SCOTTSBLUFF    SUNNY     76  38  25 SE7       29.53F
SIDNEY         SUNNY     76  41  28 S14       29.59F

...WESTERN AND NORTH CENTRAL NEBRASKA...

CITY           SKY/WX    TMP DP  RH WIND       PRES   REMARKS
VALENTINE      SUNNY     78  50  37 S26G35    29.53F
AINSWORTH      SUNNY     71  53  53 S15G28    29.57F
ONEILL         MOSUNNY   71  55  58 S22G29    29.63F
BROKEN BOW     PTSUNNY   69  54  58 S26G36    29.62F
IMPERIAL       SUNNY     70  51  51 S17G28    29.60F
NORTH PLATTE   MOSUNNY   72  53  51 S21G28    29.59F
MCCOOK         SUNNY     76  52  43 S25G35    29.60F

...EASTERN NEBRASKA...

CITY           SKY/WX    TMP DP  RH WIND       PRES   REMARKS
NORFOLK        MOSUNNY   75  55  49 S25G36    29.67F
SO SIOUX CITY  SUNNY     76  57  51 S18G25    29.73F
TEKAMAH        SUNNY     78  56  46 S20G30    29.76F
COLUMBUS       MOSUNNY   74  57  55 S20G33    29.72F
ALBION         SUNNY     75  55  49 S26G36    29.67F
OMAHA EPPLEY   PTSUNNY   76  57  51 S28G35    29.80F
OFFUTT AFB     SUNNY     73  57  56 SE22G30   29.80F
MILLARD        MOSUNNY   76  59  56 S16G30    29.80F
LINCOLN        MOSUNNY   76  58  53 S29G38    29.77F
NEBRASKA CITY  CLOUDY    75  60  60 S25       29.84F
BEATRICE       CLOUDY    73  59  62 S25       29.78F
FALLS CITY     PTSUNNY   75  58  55 S21G30    29.86F

...NORTHERN KANSAS...

CITY           SKY/WX    TMP DP  RH WIND       PRES   REMARKS
GOODLAND       CLOUDY    75  47  36 S21G26    29.62F
HILL CITY      SUNNY     78  54  43 S24G43    29.65F
NORTON         CLEAR     79  45  29 S24G35    29.63F
PHILLIPSBURG   SUNNY     79  52  38 S21G31    29.67F
SMITH CENTER   SUNNY     75  54  46 S21G29    29.71F
HAYS           SUNNY     76  56  49 S23G39    29.72F
RUSSELL        SUNNY     72  59  63 S26G39    29.73F
CONCORDIA      SUNNY     75  60  59 S23G38    29.76F
SALINA         MOSUNNY   78  61  55 S24G41    29.79F
TOPEKA         CLOUDY    76  61  59 S21G30    29.90F



USA.gov is the U.S. government's official web portal to all federal, state and local government web resources and services.